User: anonymous   Login
Location: Laan Hart van Zuid
(52.2563°N, 6.7904°E)
Time: 13:45:31
(UTC+02:00)
Language:

BlueWalker 3 - Orbit

View from above orbital plane
View from above orbital plane
View from above satellite
View from above satellite

Ground track
Ground track

The orbit data is extracted from the following two-line orbital elements,

1 53807U 22111AL  25166.78650605  .00005239  00000-0  17260-3 0  9995
2 53807  53.2335 307.4696 0008656 121.5072 238.6777 15.33148503153905
Epoch (UTC): 15 June 2025 18:52:34
Eccentricity: 0.0008656
inclination: 53.2335°
perigee height: 460 km
apogee height: 472 km
right ascension of ascending node: 307.4696°
argument of perigee: 121.5072°
revolutions per day: 15.33148503
mean anomaly at epoch: 238.6777°
orbit number at epoch: 15390

The dashed part of the orbit path shows where the satellite is in the earth's shadow,  

DLR